Granite Falls, MN

10:51 AM CDT on April 23, 2018 (GMT -0500)
Granite Falls

Weather History for KGDB - November, 2013

Change the Weather History Date:

Friday, November 22, 2013

  Actual Average (KMVE) Record (KMVE)
Temperature  
Mean Temperature 19 °F -  
Max Temperature 36 °F 36 °F 61 °F (1974)
Min Temperature 2 °F 19 °F -2 °F (1996)
Degree Days  
Heating Degree Days 46    
Moisture  
Dew Point 4 °F    
Average Humidity 62    
Maximum Humidity 84    
Minimum Humidity 22    
Precipitation  
Precipitation 0.00 in - - ()
Sea Level Pressure  
Sea Level Pressure 30.59 in    
Wind  
Wind Speed 11 mph (West)    
Max Wind Speed 22 mph    
Max Gust Speed 31 mph    
Visibility 10 miles    
Events      
Averages and records for this station are not official NWS values.
T = Trace of Precipitation, MM = Missing Value Source: NWS Daily Summary

Daily Weather History Graph

Daily Weather History Graph

Search for Another Location

Airport or City:

Astronomy

Nov. 22, 2013 Rise Set
Actual Time 7:28 AM CST 4:47 PM CST
Civil Twilight 6:56 AM CST 5:20 PM CST
Nautical Twilight 6:20 AM CST 5:55 PM CST
Astronomical Twilight 5:45 AM CST 6:30 PM CST
Moon 9:24 PM CST (11/22) 11:10 AM CST (11/22)
Length of Visible Light 10h 23m
Length of Day
9h 18m
Waning Gibbous, 78% of the Moon is Illuminated
Nov 22
Waning Gibbous
Nov 25
Last Quarter
Dec 2
New
Dec 9
First Quarter
Dec 17
Full

Hourly Weather History & Observations

Time (CST) Temp. Windchill Dew Point Humidity Pressure Visibility Wind Dir Wind Speed Gust Speed Precip Events Conditions
12:12 AM 14.5 °F 0.5 °F 6.1 °F 69% 30.61 in 10.0 mi WNW 12.7 mph - N/A   Clear
12:33 AM 13.6 °F 1.6 °F 6.4 °F 73% 30.61 in 10.0 mi WNW 9.2 mph - N/A   Clear
12:53 AM 12.9 °F 0.7 °F 6.3 °F 75% 30.62 in 10.0 mi WNW 9.2 mph - N/A   Clear
1:13 AM 12.4 °F 0.0 °F 5.9 °F 75% 30.62 in 10.0 mi West 9.2 mph - N/A   Clear
1:32 AM 11.8 °F -1.5 °F 6.4 °F 79% 30.62 in 10.0 mi WNW 10.4 mph - N/A   Clear
1:53 AM 10.9 °F -0.8 °F 5.9 °F 80% 30.62 in 10.0 mi West 8.1 mph - N/A   Clear
2:12 AM 9.0 °F -4.2 °F 4.5 °F 82% 30.62 in 10.0 mi West 9.2 mph - N/A   Clear
2:33 AM 9.0 °F -3.2 °F 4.5 °F 82% 30.61 in 10.0 mi West 8.1 mph - N/A   Clear
2:53 AM 8.4 °F -2.8 °F 3.9 °F 82% 30.61 in 10.0 mi West 6.9 mph - N/A   Clear
3:13 AM 6.6 °F -5.0 °F 2.5 °F 83% 30.61 in 10.0 mi West 6.9 mph - N/A   Clear
3:32 AM 5.4 °F -5.2 °F 1.4 °F 84% 30.61 in 10.0 mi West 5.8 mph - N/A   Clear
3:53 AM 4.8 °F - 0.5 °F 82% 30.60 in 10.0 mi Calm Calm - N/A   Clear
4:12 AM 4.3 °F -4.9 °F -0.2 °F 82% 30.61 in 10.0 mi WNW 4.6 mph - N/A   Clear
4:33 AM 5.4 °F -5.2 °F 0.7 °F 81% 30.61 in 10.0 mi West 5.8 mph - N/A   Clear
4:53 AM 4.1 °F -5.1 °F -0.6 °F 81% 30.60 in 10.0 mi WSW 4.6 mph - N/A   Clear
5:12 AM 2.7 °F -10.9 °F -1.5 °F 83% 30.60 in 10.0 mi WSW 8.1 mph - N/A   Clear
5:33 AM 3.7 °F -7.1 °F -0.8 °F 82% 30.61 in 10.0 mi WSW 5.8 mph - N/A   Clear
5:53 AM 2.8 °F -6.6 °F -1.5 °F 82% 30.61 in 10.0 mi WSW 4.6 mph - N/A   Clear
6:12 AM 2.3 °F -5.2 °F -2.2 °F 81% 30.59 in 10.0 mi WSW 3.5 mph - N/A   Clear
6:33 AM 2.8 °F -6.6 °F -1.7 °F 81% 30.60 in 10.0 mi WSW 4.6 mph - N/A   Clear
6:52 AM 2.7 °F -6.8 °F -1.8 °F 81% 30.61 in 10.0 mi WSW 4.6 mph - N/A   Clear
7:13 AM 3.7 °F -8.4 °F -0.8 °F 82% 30.61 in 10.0 mi SW 6.9 mph - N/A   Clear
7:33 AM 5.9 °F -7.0 °F 0.7 °F 79% 30.61 in 10.0 mi SW 8.1 mph - N/A   Clear
7:52 AM 6.4 °F -5.2 °F 0.7 °F 77% 30.60 in 10.0 mi SSW 6.9 mph - N/A   Clear
8:13 AM 7.5 °F -2.6 °F 2.1 °F 79% 30.60 in 10.0 mi SSW 5.8 mph - N/A   Clear
8:33 AM 9.9 °F -2.2 °F 3.4 °F 75% 30.60 in 10.0 mi SSW 8.1 mph - N/A   Clear
8:53 AM 12.9 °F 2.6 °F 4.6 °F 70% 30.58 in 10.0 mi SSW 6.9 mph - N/A   Clear
9:13 AM 15.1 °F 7.7 °F 6.1 °F 68% 30.58 in 10.0 mi SSW 4.6 mph - N/A   Clear
9:32 AM 16.7 °F 6.2 °F 6.4 °F 64% 30.58 in 7.0 mi SW 8.1 mph - N/A   Clear
9:53 AM 19.4 °F 7.9 °F 8.1 °F 61% 30.58 in 10.0 mi SW 10.4 mph - N/A   Clear
10:13 AM 21.6 °F 9.9 °F 8.4 °F 57% 30.57 in 10.0 mi SW 11.5 mph - N/A   Clear
10:33 AM 24.6 °F 13.2 °F 8.6 °F 51% 30.57 in 10.0 mi SW 12.7 mph - N/A   Clear
10:53 AM 26.6 °F 14.7 °F 7.9 °F 45% 30.55 in 10.0 mi SSW 15.0 mph - N/A   Clear
11:13 AM 29.7 °F 19.1 °F 7.5 °F 39% 30.54 in 10.0 mi SSW 13.8 mph - N/A   Clear
11:32 AM 32.0 °F 21.2 °F 4.5 °F 31% 30.54 in 10.0 mi SW 16.1 mph - N/A   Clear
11:53 AM 33.3 °F 22.8 °F 2.8 °F 28% 30.53 in 10.0 mi SW 16.1 mph 20.7 mph N/A   Clear
12:13 PM 33.8 °F 23.2 °F 2.5 °F 27% 30.52 in 10.0 mi SW 17.3 mph 23.0 mph N/A   Clear
12:32 PM 35.6 °F 24.5 °F 0.3 °F 23% 30.51 in 10.0 mi WSW 20.7 mph 27.6 mph N/A   Clear
12:52 PM 36.5 °F 25.7 °F 1.2 °F 23% 30.51 in 10.0 mi WSW 20.7 mph 27.6 mph N/A   Clear
1:13 PM 36.5 °F 25.4 °F 0.1 °F 22% 30.50 in 10.0 mi WSW 21.9 mph 29.9 mph N/A   Clear
1:33 PM 36.0 °F 25.0 °F 3.2 °F 25% 30.49 in 10.0 mi WSW 20.7 mph 25.3 mph N/A   Clear
1:53 PM 35.8 °F 26.5 °F 4.1 °F 27% 30.48 in 10.0 mi WSW 15.0 mph - N/A   Clear
2:12 PM 36.7 °F 26.3 °F 2.7 °F 24% 30.48 in 10.0 mi West 19.6 mph 24.2 mph N/A   Clear
2:33 PM 36.7 °F 26.0 °F 2.8 °F 24% 30.48 in 10.0 mi West 20.7 mph 25.3 mph N/A   Clear
2:53 PM 34.7 °F 24.0 °F 6.6 °F 31% 30.49 in 10.0 mi WNW 18.4 mph 25.3 mph N/A   Clear
3:13 PM 32.4 °F 20.3 °F 8.6 °F 37% 30.51 in 10.0 mi NW 20.7 mph 26.5 mph N/A   Clear
3:32 PM 31.6 °F 20.4 °F 9.0 °F 39% 30.51 in 10.0 mi WNW 17.3 mph 24.2 mph N/A   Clear
3:53 PM 29.5 °F 16.5 °F 9.3 °F 43% 30.53 in 10.0 mi WNW 20.7 mph 25.3 mph N/A   Clear
4:13 PM 28.2 °F 15.5 °F 9.0 °F 44% 30.54 in 10.0 mi WNW 18.4 mph 25.3 mph N/A   Clear
4:32 PM 26.4 °F 14.0 °F 9.5 °F 49% 30.55 in 10.0 mi NW 16.1 mph 21.9 mph N/A   Clear
4:53 PM 24.8 °F 13.4 °F 10.2 °F 54% 30.56 in 10.0 mi NW 12.7 mph 19.6 mph N/A   Clear
5:13 PM 23.9 °F 12.3 °F 10.2 °F 56% 30.56 in 10.0 mi NW 12.7 mph 17.3 mph N/A   Clear
5:32 PM 23.9 °F 11.7 °F 11.5 °F 59% 30.56 in 10.0 mi NW 13.8 mph 18.4 mph N/A   Scattered Clouds
5:53 PM 23.7 °F 10.1 °F 12.9 °F 63% 30.58 in 10.0 mi NNW 17.3 mph 23.0 mph N/A   Mostly Cloudy
6:13 PM 22.6 °F 9.2 °F 11.5 °F 62% 30.58 in 10.0 mi NNW 16.1 mph 19.6 mph N/A   Overcast
6:32 PM 22.1 °F 8.0 °F 10.4 °F 61% 30.60 in 10.0 mi NW 17.3 mph 23.0 mph N/A   Overcast
6:53 PM 21.4 °F 7.1 °F 11.3 °F 65% 30.60 in 10.0 mi NW 17.3 mph 23.0 mph N/A   Mostly Cloudy
7:13 PM 21.0 °F 6.6 °F 12.9 °F 71% 30.61 in 10.0 mi NNW 17.3 mph 23.0 mph N/A   Mostly Cloudy
7:32 PM 18.5 °F 3.3 °F 10.4 °F 71% 30.63 in 10.0 mi NNW 17.3 mph 23.0 mph N/A   Mostly Cloudy
7:53 PM 15.8 °F -1.5 °F 7.5 °F 70% 30.64 in 10.0 mi NNW 20.7 mph 31.1 mph N/A   Mostly Cloudy
8:13 PM 15.3 °F -1.8 °F 5.0 °F 64% 30.65 in 10.0 mi NW 19.6 mph 27.6 mph N/A   Mostly Cloudy
8:33 PM 14.0 °F -3.9 °F 2.3 °F 60% 30.66 in 10.0 mi NNW 20.7 mph 27.6 mph N/A   Mostly Cloudy
8:53 PM 12.7 °F -4.6 °F 2.3 °F 63% 30.67 in 10.0 mi NW 18.4 mph 23.0 mph N/A   Scattered Clouds
9:13 PM 12.0 °F -6.0 °F 2.1 °F 65% 30.68 in 10.0 mi NW 19.6 mph 26.5 mph N/A   Clear
9:32 PM 11.3 °F -6.0 °F 2.1 °F 67% 30.69 in 10.0 mi NW 17.3 mph 25.3 mph N/A   Clear
9:53 PM 10.6 °F -6.9 °F 1.8 °F 68% 30.70 in 10.0 mi NW 17.3 mph 24.2 mph N/A   Clear
10:12 PM 10.4 °F -7.7 °F 2.3 °F 70% 30.70 in 10.0 mi NW 18.4 mph 27.6 mph N/A   Clear
10:33 PM 10.0 °F -7.6 °F 2.3 °F 71% 30.70 in 10.0 mi NW 17.3 mph 26.5 mph N/A   Clear
10:53 PM 9.3 °F -7.4 °F 2.3 °F 73% 30.72 in 10.0 mi NW 15.0 mph 23.0 mph N/A   Clear
11:12 PM 9.0 °F -7.9 °F 2.3 °F 74% 30.72 in 10.0 mi NW 15.0 mph 20.7 mph N/A   Clear
11:33 PM 8.4 °F -7.9 °F 1.9 °F 75% 30.73 in 10.0 mi NW 13.8 mph 23.0 mph N/A   Clear
11:53 PM 7.9 °F -8.6 °F 1.6 °F 75% 30.73 in 10.0 mi NW 13.8 mph 20.7 mph N/A   Clear